Location: Newark
(13.6797°N, 8.5297°E)
Time: 05:19:02
(UTC+00:00)

A-11 Canister half - Pass Details

Date: 22 January 2020
Orbit: 1517 x 1683 km, 47.2° (Epoch: 19 February)

Event Time Altitude Azimuth Distance (km) Brightness Sun altitude
Rises 06:11:47 0° 332° (NNW) 4,664 11.1 3.3°
Reaches altitude 10° 06:15:22 10° 343° (NNW) 3,694 10.7 4.1°
Maximum altitude 06:23:15 30° 41° (NE) 2,504 10.5 5.9°
Drops below altitude 10° 06:31:17 10° 99° (E) 3,788 13.1 7.7°
Sets 06:34:58 0° 109° (ESE) 4,800 14.1 8.5°
